Flag for Norway Weather past 2 weeks in Svolvær, Norway

Now
66 °F

Sunny.


Feels Like: 66 °F
Forecast: 56 / 58 °F
Wind: 14 mph from Southeast

Location: Svolvaer / Helle

Current Time: Aug 28, 2015 at 5:49:06 PM

Latest Report: Aug 28, 2015 at 4:50 PM


Visibility: 10 mi

Pressure: 29.33 "Hg

Humidity: 60%

Dew point: 52 °F

Location of SvolværLocation

Historic Weather in Svolvær — Graph

°F

Svolvær temperature yesterday

Maximum temperature yesterday: 70 °F (at 2:50 PM)
Minimum temperature yesterday: 64 °F (at 4:50 AM)
Average temperature yesterday: 66 °F

Past Weeks' High & Low Weather Summary

 TemperatureHumidityPressure
High72 °F (Aug 21, 4:50 PM)100% (Aug 14, 4:50 AM)30.33 "Hg (Aug 14, 4:50 AM)
Low50 °F (Aug 14, 4:50 AM)40% (Aug 16, 4:50 PM)29.33 "Hg (Aug 28, 12:50 PM)
Average62 °F70%30.06 "Hg
* Reported Aug 13 4:50 PM — Aug 28 4:50 PM, Svolvær, Weather by CustomWeather, © 2015

Note: Actual official high and low records may vary slightly from our data, if they occured in-between our weather recording intervals... More about our weather records

Advertising

Svolvær weather history for previous 24 hours

 ConditionsComfort  
Time TempWeatherWind HumidityBarometerVisibility
4:50 PM
Fri, Aug 28
66 °FSunny.14 mph60%29.33 "Hg10 mi
3:50 PM66 °FSunny.22 mph60%29.33 "Hg10 mi
2:50 PM68 °FSunny.22 mph56%29.33 "Hg10 mi
1:50 PM66 °FSunny.24 mph60%29.33 "Hg10 mi
12:50 PM66 °FPassing clouds.25 mph56%29.33 "HgN/A
11:50 AM66 °FPassing clouds.20 mph56%29.36 "HgN/A
10:50 AM66 °FSprinkles. Broken clouds.16 mph56%29.39 "HgN/A
9:50 AM66 °FScattered clouds.35 mph60%29.39 "HgN/A
8:50 AM66 °FBroken clouds.28 mph60%29.39 "HgN/A
7:50 AM64 °FSprinkles. Partly sunny.23 mph68%29.42 "HgN/A
6:50 AM64 °FSprinkles. Partly sunny.23 mph68%29.42 "HgN/A
5:50 AM64 °FSprinkles. Passing clouds.22 mph64%29.45 "HgN/A
4:50 AM64 °FLight rain. Partly cloudy.25 mph68%29.45 "HgN/A
4:20 AM64 °FLight rain. Partly cloudy.28 mph68%29.47 "HgN/A
8:50 PM
Thu, Aug 27
66 °FSunny.9 mph60%29.56 "Hg10 mi
7:50 PM66 °FSunny.13 mph60%29.56 "Hg10 mi
6:50 PM66 °FSunny.13 mph60%29.56 "Hg10 mi
5:50 PM66 °FPassing clouds.10 mph60%29.59 "HgN/A
Weather by CustomWeather, © 2015

See weather overviewHow to use our weather pages